Location: Boursonne
(49.2024°N, 3.0468°E)
Time: 10:53:47
(UTC+00:00)

SL-4 R/B - Pass Details

Date: 03 March 2021
Orbit: 428 x 663 km, 51.6° (Epoch: 11 April)

Event Time Altitude Azimuth Distance (km) Brightness Sun altitude
Rises 19:49:55 0° 289° (WNW) 2,462 6.8 -22.7°
Reaches altitude 10° 19:52:06 10° 287° (WNW) 1,564 5.5 -23.1°
Enters shadow 19:54:46 48° 268° (W) 581 2.4 -23.5°
